FENGYUN 1C DEB, 36261

Orbit data source: Space-Track

FENGYUN 1C DEB, 36261 is space debris in SSO originally from a launch on Mon, 10 May 1999 UTC launched from the Taiyaun Space Center, China (TSC). Fengyun 1C debris stems from the Chinese weather satellite Fengyun-1C, which was intentionally destroyed by a Chinese anti-satellite missile in 2007. This event dramatically increased the amount of space debris, with thousands of trackable fragments posing hazards to satellites and human spaceflight. The Fengyun 1C debris cloud has become a focal point in discussions about space sustainability and the need for international regulations to prevent the creation of new debris.

Loading next visibility...
Identifier
36261, 1999-025DWN
Orbit
SSO
Country
Flag of CNCN / PRC
Related business
Manufacturer
Unknown
Mission
Spacecraft
Bus & Motor
Unknown
Mass
Unknown
Launch date (UTC)
1999-05-10 (27 years ago)
Launch vehicle
Unknown
Launch site
Taiyaun Space Center, China (TSC)
Object type
Payload
Rocket body
Debris
Shape & HBR
Unknown shape, 0.1 m
Radar Cross Section
Small (<0.1 m²)

Expand to show TLE details & history
Last TLE update: 2 days ago

TLE from 2 days ago
0 FENGYUN 1C DEB
1 36261U 99025DWN 26166.60925266  .00000294  00000-0  40185-3 0  9996
2 36261 101.3577  88.2841 0355924   6.6566 353.9112 13.45640921869194
Epoch: 2026-06-15T14:37Z
TLE epoch observation values (Epoch: 2026-06-15T14:37:19.429Z)
Latitude
-0.00008°
Longitude
-34.94002°
Altitude
826.877 km
Speed
7.57 km/s
True Right ascension
05h 53m 08s
True Declination
0° 00' 00"
Sunlit
Object was in daylight at epoch
Visualization orbit readout
Latitude
Unknown
Longitude
Unknown
Altitude
Unknown
Speed
Unknown
Apparent Right ascension
Unknown
Apparent Declination
Unknown
Sunlit
N/A
Visualization observer readout
Local Sidereal Time
03:40:25
Azimuth
Unknown
Elevation
Unknown
Doppler factor
Unknown
Orbital elements
Apogee altitude
1,351.391 km
Perigee altitude
820.077 km
Semi-major axis
7,463.871 km
Eccentricity
0.03559
Inclination
101.3577°
RAAN
88.2841°
Arg. of periapsis
6.6566°
True anomaly
353.4586°
Mean anomaly
353.9112°
Eccentric anomaly
353.68696°
Mean motion
3.36587 °/min
Orbital period
106.96 mins
BSTAR
0.00040185
Loading maneuver chart data...
Computing Atmospheric mass density...

Documentation

Showing up to 5 results
|